Weather History for Cambridge, MD

Change the Weather History Date:

Friday, February 8, 2013

  Actual Average (KESN) Record (KESN)
Temperature  
Mean Temperature 38 °F -  
Max Temperature 42 °F 39 °F 69 °F (1965)
Min Temperature 35 °F 24 °F 8 °F (1967)
Degree Days  
Heating Degree Days 26    
Moisture  
Dew Point 38 °F    
Average Humidity 92    
Maximum Humidity 100    
Minimum Humidity 70    
Precipitation  
Precipitation 0.00 in - - ()
Sea Level Pressure  
Sea Level Pressure 29.85 in    
Wind  
Wind Speed 8 mph (NNW)    
Max Wind Speed 22 mph    
Max Gust Speed 41 mph    
Visibility 6 miles    
Events      
Averages and records for this station are not official NWS values.
T = Trace of Precipitation, MM = Missing Value Source: NWS Daily Summary

Daily Weather History Graph

Daily Weather History Graph

Search for Another Location

Airport:

Trip Planner

Search our weather history database for the weather conditions in past years. The results will help you decide how hot, cold, wet, or windy it might be!

Date:

Astronomy

Feb. 08, 2013 Rise Set
Actual Time 7:02 AM EST 5:34 PM EST
Civil Twilight 6:35 AM EST 6:02 PM EST
Nautical Twilight 6:03 AM EST 6:33 PM EST
Astronomical Twilight 5:32 AM EST 7:04 PM EST
Moon 5:28 AM EST (2/8) 4:05 PM EST (2/8)
Length of Visible Light 11h 27m
Length of Day
10h 31m
Waning Crescent, 3% of the Moon is Illuminated
Feb 8
Waning Crescent
Feb 10
New
Feb 17
First Quarter
Feb 25
Full
Mar 4
Last Quarter

Hourly Weather History & Observations

Time (EST) Temp. Windchill Dew Point Humidity Pressure Visibility Wind Dir Wind Speed Gust Speed Precip Events Conditions
12:01 AM 37.4 °F 32.8 °F 32.0 °F 81% 30.19 in 10.0 mi NE 5.8 mph - N/A   Mostly Cloudy
12:22 AM 37.4 °F 34.9 °F 32.0 °F 81% 30.19 in 10.0 mi ENE 3.5 mph - N/A   Overcast
12:42 AM 35.6 °F - 32.0 °F 87% 30.17 in 7.0 mi Calm Calm - N/A   Mostly Cloudy
1:02 AM 35.6 °F 32.8 °F 32.0 °F 87% 30.16 in 7.0 mi NE 3.5 mph - N/A   Scattered Clouds
1:22 AM 35.6 °F 31.7 °F 32.0 °F 87% 30.15 in 7.0 mi NNE 4.6 mph - N/A   Scattered Clouds
1:43 AM 35.6 °F 31.7 °F 33.8 °F 93% 30.13 in 7.0 mi NNE 4.6 mph - N/A   Scattered Clouds
2:03 AM 35.6 °F - 35.6 °F 100% 30.12 in 5.0 mi Calm Calm - N/A   Scattered Clouds
2:23 AM 35.6 °F - 35.6 °F 100% 30.11 in 4.0 mi Calm Calm - N/A   Mostly Cloudy
2:43 AM 35.6 °F - 35.6 °F 100% 30.09 in 7.0 mi Calm Calm - N/A   Mostly Cloudy
3:03 AM 37.4 °F - 35.6 °F 93% 30.09 in 4.0 mi Calm Calm - N/A   Mostly Cloudy
3:23 AM 37.4 °F - 35.6 °F 93% 30.08 in 4.0 mi Calm Calm - N/A   Mostly Cloudy
3:43 AM 37.4 °F 34.9 °F 37.4 °F 100% 30.06 in 4.0 mi NNW 3.5 mph - N/A   Mostly Cloudy
4:03 AM 37.4 °F 34.9 °F 37.4 °F 100% 30.04 in 5.0 mi NNW 3.5 mph - N/A   Scattered Clouds
4:43 AM 37.4 °F 32.1 °F 37.4 °F 100% 30.01 in 5.0 mi North 6.9 mph - N/A   Scattered Clouds
5:03 AM 37.4 °F 31.4 °F 37.4 °F 100% 29.99 in 5.0 mi North 8.1 mph - N/A   Mostly Cloudy
5:23 AM 37.4 °F 30.8 °F 37.4 °F 100% 29.98 in 5.0 mi NNE 9.2 mph - N/A   Overcast
5:43 AM 41.0 °F 35.8 °F 39.2 °F 93% 29.97 in 4.0 mi NNE 8.1 mph - N/A   Overcast
6:03 AM 41.0 °F 35.2 °F 39.2 °F 93% 29.96 in 4.0 mi NNE 9.2 mph - N/A   Overcast
7:03 AM 41.0 °F 34.7 °F 41.0 °F 100% 29.93 in 4.0 mi North 10.4 mph 16.1 mph N/A   Overcast
7:23 AM 41.0 °F 35.2 °F 41.0 °F 100% 29.92 in 5.0 mi North 9.2 mph - N/A   Overcast
7:43 AM 41.0 °F 35.2 °F 41.0 °F 100% 29.90 in 4.0 mi NNE 9.2 mph - N/A   Overcast
8:54 AM 41.0 °F 35.8 °F 41.0 °F 100% 29.84 in 4.0 mi North 8.1 mph - N/A   Overcast
9:33 AM 41.0 °F 34.7 °F 41.0 °F 100% 29.80 in 5.0 mi North 10.4 mph - N/A   Overcast
9:53 AM 41.0 °F 34.7 °F 41.0 °F 100% 29.79 in 5.0 mi North 10.4 mph 16.1 mph N/A   Overcast
10:13 AM 42.8 °F 36.6 °F 42.8 °F 100% 29.77 in 7.0 mi North 11.5 mph 17.3 mph N/A   Overcast
10:33 AM 42.8 °F 36.6 °F 42.8 °F 100% 29.76 in 5.0 mi North 11.5 mph 17.3 mph N/A   Overcast
10:53 AM 42.8 °F 37.5 °F 42.8 °F 100% 29.75 in 7.0 mi North 9.2 mph - N/A   Overcast
11:13 AM 42.8 °F 36.2 °F 42.8 °F 100% 29.74 in 7.0 mi North 12.7 mph 17.3 mph N/A   Overcast
11:33 AM 42.8 °F 35.8 °F 42.8 °F 100% 29.72 in 10.0 mi NNW 13.8 mph 19.6 mph N/A   Overcast
11:53 AM 42.8 °F 35.8 °F 42.8 °F 100% 29.71 in 10.0 mi NNW 13.8 mph 20.7 mph N/A   Overcast
12:13 PM 42.8 °F 35.8 °F 42.8 °F 100% 29.70 in 4.0 mi NNW 13.8 mph 20.7 mph N/A   Overcast
12:33 PM 42.8 °F 35.1 °F 42.8 °F 100% 29.69 in 1.5 mi NNW 16.1 mph 19.6 mph N/A   Overcast
12:53 PM 42.8 °F 35.1 °F 42.8 °F 100% 29.68 in 1.8 mi NNW 16.1 mph 21.9 mph N/A   Overcast
1:13 PM 41.0 °F 33.5 °F 41.0 °F 100% 29.68 in 1.2 mi NW 13.8 mph 20.7 mph N/A   Overcast
1:33 PM 41.0 °F 33.9 °F 41.0 °F 100% 29.67 in 1.5 mi NNW 12.7 mph 19.6 mph N/A   Overcast
1:53 PM 41.0 °F 34.3 °F 41.0 °F 100% 29.68 in 2.0 mi NW 11.5 mph 18.4 mph N/A   Overcast
2:13 PM 41.0 °F 32.5 °F 41.0 °F 100% 29.68 in 3.0 mi NNW 17.3 mph 20.7 mph N/A   Overcast
2:34 PM 41.0 °F 33.1 °F 41.0 °F 100% 29.68 in 3.0 mi NW 15.0 mph 19.6 mph N/A   Overcast
2:54 PM 41.0 °F 33.1 °F 41.0 °F 100% 29.68 in 7.0 mi North 15.0 mph 24.2 mph N/A   Overcast
3:14 PM 41.0 °F 33.1 °F 41.0 °F 100% 29.67 in 10.0 mi North 15.0 mph 25.3 mph N/A   Mostly Cloudy
3:34 PM 41.0 °F 32.5 °F 39.2 °F 93% 29.68 in 10.0 mi NNW 17.3 mph 24.2 mph N/A   Mostly Cloudy
3:54 PM 41.0 °F 32.2 °F 39.2 °F 93% 29.68 in 10.0 mi NNW 18.4 mph 24.2 mph N/A   Overcast
4:14 PM 41.0 °F 33.9 °F 39.2 °F 93% 29.70 in 7.0 mi NW 12.7 mph 18.4 mph N/A   Overcast
4:34 PM 41.0 °F 33.5 °F 37.4 °F 87% 29.68 in 7.0 mi North 13.8 mph 18.4 mph N/A   Overcast
4:54 PM 41.0 °F 33.5 °F 39.2 °F 93% 29.71 in 7.0 mi NW 13.8 mph 20.7 mph N/A   Overcast
5:14 PM 41.0 °F 33.1 °F 39.2 °F 93% 29.72 in 4.0 mi NW 15.0 mph 20.7 mph N/A   Overcast
5:34 PM 41.0 °F 34.7 °F 39.2 °F 93% 29.73 in 5.0 mi NW 10.4 mph - N/A   Overcast
5:54 PM 41.0 °F 34.7 °F 39.2 °F 93% 29.73 in 7.0 mi NW 10.4 mph 17.3 mph N/A   Overcast
6:34 PM 41.0 °F 34.7 °F 39.2 °F 93% 29.75 in 10.0 mi NW 10.4 mph - N/A   Overcast
6:54 PM 41.0 °F 33.1 °F 39.2 °F 93% 29.75 in 5.0 mi NW 15.0 mph 21.9 mph N/A   Overcast
7:14 PM 41.0 °F 35.2 °F 37.4 °F 87% 29.76 in 7.0 mi WNW 9.2 mph 17.3 mph N/A   Overcast
7:34 PM 41.0 °F 33.5 °F 37.4 °F 87% 29.77 in 7.0 mi NW 13.8 mph 17.3 mph N/A   Overcast
7:54 PM 41.0 °F 34.7 °F 37.4 °F 87% 29.77 in 7.0 mi NW 10.4 mph 17.3 mph N/A   Overcast
8:14 PM 41.0 °F 35.8 °F 37.4 °F 87% 29.77 in 7.0 mi NW 8.1 mph 19.6 mph N/A   Overcast
8:34 PM 41.0 °F 35.8 °F 37.4 °F 87% 29.78 in 7.0 mi WNW 8.1 mph - N/A   Overcast
8:54 PM 41.0 °F 34.7 °F 37.4 °F 87% 29.78 in 10.0 mi NW 10.4 mph 16.1 mph N/A   Overcast
9:14 PM 41.0 °F 34.3 °F 35.6 °F 81% 29.79 in 10.0 mi WNW 11.5 mph 19.6 mph N/A   Overcast
9:34 PM 41.0 °F 33.1 °F 35.6 °F 81% 29.79 in 10.0 mi WNW 15.0 mph 19.6 mph N/A   Overcast
9:54 PM 41.0 °F 31.9 °F 32.0 °F 70% 29.80 in 10.0 mi NW 19.6 mph 27.6 mph N/A   Overcast
10:14 PM 41.0 °F 31.9 °F 32.0 °F 70% 29.81 in 10.0 mi WNW 19.6 mph 27.6 mph N/A   Overcast
10:34 PM 41.0 °F 32.5 °F 32.0 °F 70% 29.81 in 10.0 mi WNW 17.3 mph 28.8 mph N/A   Overcast
10:54 PM 41.0 °F 32.8 °F 32.0 °F 70% 29.82 in 10.0 mi NW 16.1 mph 29.9 mph N/A   Overcast
11:15 PM 37.4 °F 26.6 °F 30.2 °F 75% 29.83 in 10.0 mi WNW 21.9 mph 41.4 mph N/A   Overcast
11:35 PM 37.4 °F 26.6 °F 28.4 °F 70% 29.84 in 10.0 mi NW 21.9 mph 40.3 mph N/A   Overcast
11:55 PM 37.4 °F 27.5 °F 28.4 °F 70% 29.86 in 10.0 mi WNW 18.4 mph 31.1 mph N/A   Overcast